[[{"header":{"parameterUnit":"m.s-1","parameterCategory":1,"la1":30.2991,"la2":30.254,"lo1":-89.0895,"lo2":-89.0444,"dy":0.0017,"dx":0.0017,"nx":28,"ny":28,"refTime":"2023-09-29T21:00:00:Z","depth":0,"parameterNumber":2,"parameterNumberName":"U-component_of_WINDS"},"data":[0,0,0,0,0,0,0,0,0,0,0,0,0,0,0,0,0,0,0,0,0,0,0,0,0,0,0,0,0,0,0,0,0,0,0,0,0,0,0,0,0,0,0,0,0,0,0,0,0,0,0,0,0,0,0,0,0,0,-2.2308,-2.2308,0,-2.2332,-2.2332,-2.2332,-2.2222,-2.2219,-2.2216,-2.2212,-2.2241,-2.2245,-2.2248,0,0,0,0,0,0,0,0,0,0,0,0,0,-2.217,-2.2173,-2.2308,-2.2308,-2.2309,-2.2332,-2.2332,-2.2333,-2.2223,-2.2219,-2.2215,-2.2211,-2.224,-2.2244,-2.2249,0,0,0,0,0,0,0,0,0,0,0,0,0,-2.2216,-2.2174,-2.2308,-2.2256,-2.2252,-2.2332,-2.2332,-2.2333,-2.2223,-2.2218,-2.2214,-2.2209,-2.2238,-2.2244,-2.2249,-2.2381,0,0,-2.2267,-2.2269,0,0,0,0,0,0,0,0,-2.2213,-2.2221,-2.2264,-2.226,-2.2255,-2.2269,-2.2294,-2.2349,-2.2225,-2.2234,-2.2212,-2.2207,-2.2254,-2.2258,-2.2274,-2.2382,-2.2384,-2.2267,-2.2271,-2.2273,-2.2275,0,0,0,0,0,0,0,-2.221,-2.2219,-2.2317,-2.2264,-2.2259,-2.2233,-2.2234,-2.2304,-2.2271,-2.2233,-2.2225,-2.2229,-2.2251,-2.2269,-2.2274,-2.2384,-2.2267,-2.2272,-2.2275,-2.2278,-2.2602,-2.2607,0,0,0,0,0,0,-2.2214,-2.2217,-2.2317,-2.2318,-2.2222,-2.224,-2.2241,-2.227,-2.227,-2.2266,-2.2233,-2.2224,-2.2261,-2.2267,-2.2274,-2.2429,-2.2273,-2.2278,-2.2281,-2.2597,-2.2604,-2.2609,0,0,0,0,0,0,-2.2211,-2.2223,-2.2316,-2.2266,-2.2275,-2.2247,-2.228,-2.2273,-2.229,-2.227,-2.2264,-2.2257,-2.2258,-2.2266,-2.2355,-2.2428,-2.2281,-2.2286,-2.2591,-2.2599,-2.2606,-2.274,0,0,0,0,0,0,-2.2207,-2.2223,-2.2272,-2.2268,-2.2278,-2.2396,-2.2285,-2.2276,-2.2299,-2.2287,-2.2291,-2.2287,-2.2255,-2.2347,-2.2361,-2.2434,-2.229,-2.2584,-2.2595,-2.2604,-2.2729,-2.2751,-2.277,0,0,0,0,0,-2.2203,-2.231,-2.2275,-2.2288,-2.2339,-2.24,-2.2407,-2.2366,-2.2306,-2.2355,-2.2343,-2.2287,-2.2418,-2.2357,-2.2372,-2.2447,-2.258,-2.2592,-2.2603,-2.2719,-2.2747,-2.277,0,0,0,0,0,0,-2.2325,-2.2308,-2.227,-2.2378,-2.2391,-2.2381,-2.2443,-2.2396,-2.2428,-2.2416,-2.2365,-2.2367,-2.2465,-2.2465,-2.2397,-2.2575,-2.2488,-2.2504,-2.2572,-2.2598,-2.2618,-2.2617,-2.2295,0,0,0,0,0,-2.2364,-2.2415,-2.2397,-2.2494,-2.2503,-2.2472,-2.2497,-2.2464,-2.2477,-2.2482,-2.2476,-2.2492,-2.2536,-2.2566,-2.2606,-2.2727,-2.2727,-2.2786,-2.2807,-2.2824,-2.2839,-2.2904,-2.293,-2.2648,-2.2648,-2.2648,0,0,-2.2447,-2.2444,-2.2479,-2.2519,-2.2525,-2.2579,-2.2478,-2.2539,-2.2579,-2.2492,-2.2575,-2.2572,-2.2585,-2.2691,-2.2737,-2.2694,-2.2916,-2.284,-2.2853,-2.2858,-2.2919,-2.2945,-2.2969,-2.2656,-2.2654,-2.2653,0,0,-2.2625,-2.2627,-2.2708,-2.2716,-2.2727,-2.2705,-2.2725,-2.2722,-2.2716,-2.2798,-2.2734,-2.2782,-2.2859,-2.2871,-2.2888,-2.307,-2.302,-2.3084,-2.3194,-2.3258,-2.328,-2.33,-2.3366,-2.339,-2.3098,-2.3098,-2.3099,0,-2.2726,-2.2804,-2.2756,-2.2822,-2.2842,-2.2764,-2.2846,-2.2857,-2.2881,-2.2897,-2.2847,-2.2943,-2.2946,-2.3054,-2.3099,-2.3114,-2.3136,-2.3084,-2.328,-2.33,-2.3317,-2.338,-2.3405,-2.3106,-2.3105,-2.3105,-2.3104,0,-2.2928,-2.2983,-2.3048,-2.3072,-2.3099,-2.3173,-2.3137,-2.3171,-2.3135,-2.312,-2.3205,-2.3207,-2.3246,-2.3268,-2.3235,-2.3372,-2.3345,-2.3289,-2.3201,-2.3353,-2.3411,-2.3434,-2.3118,-2.3115,-2.3112,-2.311,0,0,-2.3186,-2.3181,-2.3205,-2.3215,-2.3221,-2.3263,-2.3334,-2.337,-2.34,-2.3419,-2.3478,-2.3545,-2.3493,-2.3512,-2.3479,-2.3535,-2.3681,-2.3472,-2.3471,-2.3512,-2.3833,-2.3876,-2.3905,-2.3647,-2.3651,-2.3654,-2.3832,0,-2.336,-2.348,-2.3439,-2.3561,-2.3612,-2.3538,-2.36,-2.3611,-2.3598,-2.364,-2.3625,-2.3674,-2.3601,-2.3612,-2.3664,-2.3652,-2.3745,-2.3638,-2.3703,-2.3706,-2.3703,-2.3935,-2.3981,-2.4149,-2.3854,-2.3858,-2.3861,0,-2.3581,-2.3607,-2.3735,-2.3731,-2.3751,-2.3807,-2.3838,-2.3878,-2.3889,-2.3876,-2.3897,-2.3852,-2.3922,-2.3833,-2.393,-2.3859,-2.3882,-2.3881,-2.3886,-2.3892,-2.3794,-2.3949,-2.4201,-2.4227,-2.3896,-2.3893,-2.3891,0,-2.3757,-2.3825,-2.3909,-2.392,-2.3918,-2.3959,-2.3961,-2.3966,-2.3991,-2.4018,-2.4034,-2.4069,-2.4089,-2.4118,-2.4085,-2.4023,-2.4187,-2.4095,-2.418,-2.4181,-2.4219,-2.4218,-2.4481,-2.4232,-2.4232,-2.4231,-2.4231,0,-2.3958,-2.4039,-2.3989,-2.4041,-2.413,-2.4082,-2.4172,-2.4165,-2.4171,-2.4221,-2.4159,-2.4209,-2.4161,-2.4206,-2.418,-2.4265,-2.4274,-2.4267,-2.4259,-2.4273,-2.4275,-2.4289,-2.4278,-2.4238,-2.4236,-2.4235,-2.4234,0,-2.4171,-2.414,-2.4228,-2.4218,-2.4218,-2.4284,-2.4276,-2.4325,-2.4307,-2.4372,-2.4384,-2.4357,-2.4407,-2.4376,-2.4427,-2.4409,-2.4521,-2.4496,-2.4517,-2.4511,-2.4598,-2.4591,-2.4881,-2.4918,-2.4644,-2.4647,-2.4649,0,-2.4302,-2.4362,-2.4359,-2.4388,-2.4393,-2.444,-2.4465,-2.442,-2.4448,-2.4465,-2.4512,-2.4556,-2.4589,-2.4673,-2.4658,-2.4697,-2.4674,-2.4773,-2.468,-2.4692,-2.4678,-2.4675,-2.4681,-2.4793,-2.4796,-2.4799,-2.4801,0,-2.4538,-2.4519,-2.4556,-2.4589,-2.462,-2.4643,-2.4662,-2.4689,-2.4644,-2.4679,-2.4729,-2.4754,-2.4805,-2.4851,-2.4883,-2.4886,-2.4837,-2.483,-2.4852,-2.4868,-2.4878,-2.4875,-2.457,-2.4824,-2.4822,-2.482,-2.4819,-2.4818,-2.4714,-2.4765,-2.477,-2.4814,-2.4823,-2.4842,-2.4887,-2.4874,-2.4914,-2.4952,-2.4923,-2.4982,-2.4992,-2.503,-2.5039,-2.5085,-2.5045,-2.5077,-2.5085,-2.5094,-2.5107,-2.4869,-2.5091,-2.509,-2.509,-2.5089,-2.5089,0,-2.4948,-2.4948,-2.4988,-2.5016,-2.505,-2.4999,-2.5017,-2.505,-2.5102,-2.5114,-2.5148,-2.5205,-2.5249,-2.5237,-2.5277,-2.5316,-2.5295,-2.5328,-2.5326,-2.5328,-2.5139,-2.5117,-2.5345,-2.5345,-2.5345,-2.5345,-2.5345,-2.5345,-2.5074,-2.5157,-2.514,-2.5227,-2.5225,-2.5282,-2.5297,-2.5314,-2.5324,-2.539,-2.5426,-2.5417,-2.542,-2.5459,-2.5497,-2.5493,-2.5511,-2.5553,-2.5541,-2.5366,-2.5341,-2.5317,-2.5295,-2.5557,-2.5557,-2.5725,-2.5727,-2.5728]},{"header":{"parameterUnit":"m.s-1","parameterCategory":1,"la1":30.2991,"la2":30.254,"lo1":-89.0895,"lo2":-89.0444,"dy":0.0017,"dx":0.0017,"nx":28,"ny":28,"refTime":"2023-09-29T21:00:00:Z","depth":0,"parameterNumber":3,"parameterNumberName":"V-component_of_WINDS"},"data":[0,0,0,0,0,0,0,0,0,0,0,0,0,0,0,0,0,0,0,0,0,0,0,0,0,0,0,0,0,0,0,0,0,0,0,0,0,0,0,0,0,0,0,0,0,0,0,0,0,0,0,0,0,0,0,0,0,0,-1.4139,-1.414,0,-1.4254,-1.4255,-1.4256,-1.4297,-1.4297,-1.4296,-1.4296,-1.4412,-1.4415,-1.4418,0,0,0,0,0,0,0,0,0,0,0,0,0,-1.3952,-1.3956,-1.4139,-1.414,-1.4142,-1.4254,-1.4255,-1.4257,-1.4297,-1.4297,-1.4296,-1.4296,-1.441,-1.4415,-1.4419,0,0,0,0,0,0,0,0,0,0,0,0,0,-1.4047,-1.3957,-1.4139,-1.4176,-1.418,-1.4253,-1.4255,-1.4257,-1.4297,-1.4297,-1.4296,-1.4296,-1.4409,-1.4414,-1.4419,-1.4464,0,0,-1.4435,-1.4437,0,0,0,0,0,0,0,0,-1.4041,-1.4054,-1.4169,-1.4173,-1.4178,-1.4261,-1.4232,-1.4326,-1.4298,-1.4253,-1.4296,-1.4295,-1.4362,-1.4371,-1.4394,-1.4469,-1.4474,-1.4436,-1.4439,-1.4441,-1.4442,0,0,0,0,0,0,0,-1.4035,-1.4049,-1.4184,-1.417,-1.4176,-1.4186,-1.4198,-1.425,-1.4309,-1.4257,-1.426,-1.4273,-1.4364,-1.4389,-1.4397,-1.4476,-1.4435,-1.444,-1.4443,-1.4445,-1.4592,-1.4593,0,0,0,0,0,0,-1.4022,-1.4043,-1.4181,-1.4188,-1.4107,-1.4189,-1.4204,-1.4235,-1.4309,-1.432,-1.4273,-1.4274,-1.438,-1.4391,-1.4401,-1.4457,-1.4441,-1.4446,-1.4449,-1.4592,-1.4593,-1.4594,0,0,0,0,0,0,-1.4018,-1.4034,-1.4176,-1.4116,-1.4135,-1.4193,-1.4228,-1.4237,-1.4262,-1.4322,-1.4332,-1.4288,-1.438,-1.4394,-1.4448,-1.4462,-1.4448,-1.4453,-1.4591,-1.4592,-1.4593,-1.4571,0,0,0,0,0,0,-1.4013,-1.4033,-1.4051,-1.4117,-1.4138,-1.4222,-1.4229,-1.424,-1.4271,-1.4273,-1.4338,-1.4348,-1.438,-1.444,-1.4453,-1.4469,-1.4457,-1.459,-1.4591,-1.4593,-1.457,-1.4571,-1.4571,0,0,0,0,0,-1.4006,-1.4039,-1.4051,-1.4068,-1.4162,-1.4222,-1.4235,-1.4273,-1.4272,-1.429,-1.4328,-1.4346,-1.4458,-1.4445,-1.446,-1.4478,-1.4589,-1.4591,-1.4593,-1.457,-1.4571,-1.4571,0,0,0,0,0,0,-1.3973,-1.4049,-1.4063,-1.4119,-1.4164,-1.4229,-1.4254,-1.4272,-1.4318,-1.4318,-1.4362,-1.4376,-1.4427,-1.4458,-1.4442,-1.4524,-1.4525,-1.4529,-1.4502,-1.4503,-1.4504,-1.4495,-1.4461,0,0,0,0,0,-1.3973,-1.4016,-1.4079,-1.4123,-1.4145,-1.4195,-1.4223,-1.4248,-1.4296,-1.4315,-1.4357,-1.4403,-1.4449,-1.4478,-1.4523,-1.4575,-1.4589,-1.4594,-1.4595,-1.4595,-1.4599,-1.4627,-1.463,-1.4599,-1.4599,-1.4599,0,0,-1.3972,-1.4018,-1.4043,-1.4117,-1.4155,-1.4198,-1.4211,-1.4256,-1.4288,-1.4322,-1.4376,-1.4408,-1.4462,-1.4515,-1.454,-1.4542,-1.461,-1.4597,-1.4597,-1.4601,-1.463,-1.4632,-1.4635,-1.4601,-1.46,-1.46,0,0,-1.3992,-1.4032,-1.4072,-1.411,-1.4167,-1.4201,-1.421,-1.4272,-1.4295,-1.435,-1.4376,-1.4414,-1.4492,-1.4529,-1.4558,-1.4591,-1.4609,-1.4605,-1.4607,-1.4635,-1.4637,-1.464,-1.4651,-1.4655,-1.4608,-1.4608,-1.4608,0,-1.3984,-1.4051,-1.409,-1.4134,-1.4166,-1.4199,-1.4239,-1.4273,-1.4342,-1.4363,-1.4364,-1.4462,-1.45,-1.4562,-1.457,-1.4593,-1.4604,-1.4598,-1.4634,-1.4637,-1.464,-1.4651,-1.4655,-1.4607,-1.4608,-1.4608,-1.4608,0,-1.4037,-1.4083,-1.4108,-1.4174,-1.4208,-1.425,-1.4296,-1.4325,-1.4347,-1.438,-1.4435,-1.4482,-1.4537,-1.4553,-1.4575,-1.4618,-1.4617,-1.4626,-1.4627,-1.4641,-1.4652,-1.4657,-1.4606,-1.4606,-1.4607,-1.4607,0,0,-1.4041,-1.4128,-1.4136,-1.4166,-1.4232,-1.4267,-1.431,-1.4364,-1.4389,-1.4435,-1.4471,-1.4536,-1.4544,-1.4577,-1.4603,-1.4627,-1.4649,-1.4632,-1.4634,-1.4633,-1.4699,-1.4692,-1.4696,-1.4661,-1.4662,-1.4663,-1.4694,0,-1.4069,-1.4148,-1.4185,-1.4247,-1.4289,-1.432,-1.4357,-1.4401,-1.4432,-1.4472,-1.4506,-1.4551,-1.4559,-1.4579,-1.4604,-1.4641,-1.4663,-1.4639,-1.4695,-1.4696,-1.468,-1.4702,-1.4695,-1.4722,-1.4699,-1.4699,-1.47,0,-1.4114,-1.416,-1.4226,-1.4286,-1.4305,-1.4337,-1.439,-1.4428,-1.4477,-1.4498,-1.4534,-1.4559,-1.4604,-1.4602,-1.4664,-1.4648,-1.4672,-1.4694,-1.4696,-1.4702,-1.4699,-1.4709,-1.4732,-1.4736,-1.4707,-1.4707,-1.4706,0,-1.4109,-1.4188,-1.4237,-1.4262,-1.4333,-1.4355,-1.4385,-1.4434,-1.4464,-1.451,-1.453,-1.4579,-1.4606,-1.4644,-1.4681,-1.4676,-1.4739,-1.4741,-1.4757,-1.4756,-1.4769,-1.4768,-1.4796,-1.4785,-1.4785,-1.4785,-1.4785,0,-1.4137,-1.4176,-1.4236,-1.4267,-1.4311,-1.4353,-1.4395,-1.4428,-1.4471,-1.4507,-1.4537,-1.4571,-1.4618,-1.4657,-1.4687,-1.4733,-1.4745,-1.4763,-1.477,-1.476,-1.4758,-1.4777,-1.4776,-1.4786,-1.4786,-1.4786,-1.4786,0,-1.4139,-1.4181,-1.4238,-1.43,-1.4316,-1.4346,-1.4399,-1.4429,-1.4462,-1.4508,-1.4521,-1.4572,-1.462,-1.4661,-1.4723,-1.4743,-1.4791,-1.48,-1.4774,-1.4778,-1.4793,-1.479,-1.4834,-1.4842,-1.4825,-1.4825,-1.4826,0,-1.4155,-1.4185,-1.4251,-1.4278,-1.4308,-1.4351,-1.4382,-1.4423,-1.4454,-1.4512,-1.4535,-1.4585,-1.4627,-1.4702,-1.4744,-1.4792,-1.4802,-1.4814,-1.4809,-1.4798,-1.4801,-1.4799,-1.4802,-1.4814,-1.4814,-1.4814,-1.4813,0,-1.4177,-1.4196,-1.4239,-1.429,-1.4326,-1.4368,-1.441,-1.443,-1.4479,-1.4512,-1.4562,-1.4594,-1.4658,-1.4707,-1.4759,-1.479,-1.481,-1.4815,-1.4821,-1.4811,-1.4795,-1.4803,-1.4774,-1.4813,-1.4813,-1.4813,-1.4813,-1.4813,-1.4186,-1.4214,-1.4265,-1.4312,-1.4348,-1.4387,-1.4419,-1.4455,-1.4497,-1.4553,-1.4574,-1.4625,-1.4672,-1.4745,-1.4775,-1.4814,-1.4817,-1.4826,-1.4829,-1.483,-1.4829,-1.4789,-1.4824,-1.4824,-1.4824,-1.4824,-1.4824,0,-1.4209,-1.4243,-1.4286,-1.4345,-1.4381,-1.4397,-1.4445,-1.4474,-1.4518,-1.4561,-1.4602,-1.4658,-1.4706,-1.4751,-1.4801,-1.4823,-1.4833,-1.4835,-1.4833,-1.484,-1.4823,-1.4813,-1.4826,-1.4826,-1.4826,-1.4826,-1.4826,-1.4826,-1.4226,-1.4275,-1.4299,-1.4366,-1.44,-1.445,-1.4475,-1.4511,-1.4546,-1.4607,-1.4647,-1.4676,-1.472,-1.4773,-1.4817,-1.4829,-1.4845,-1.4844,-1.4858,-1.4842,-1.4841,-1.4841,-1.4831,-1.4847,-1.4847,-1.4872,-1.4872,-1.4872]}]]